TimeCDT,TemperatureF,Dew PointF,Humidity,Sea Level PressureIn,VisibilityMPH,Wind Direction,Wind SpeedMPH,Gust SpeedMPH,PrecipitationIn,Events,Conditions,WindDirDegrees,DateUTC
12:53 AM,72.0,71.1,97,29.93,9.0,East,3.5,-,N/A,,Overcast,90,2013-10-03 05:53:00
1:53 AM,72.0,70.0,93,29.93,10.0,East,3.5,-,N/A,,Mostly Cloudy,90,2013-10-03 06:53:00
2:53 AM,72.0,70.0,93,29.92,10.0,Calm,Calm,-,N/A,,Overcast,0,2013-10-03 07:53:00
3:53 AM,73.0,70.0,90,29.91,10.0,SE,5.8,-,N/A,,Overcast,130,2013-10-03 08:53:00
4:53 AM,73.0,70.0,90,29.91,10.0,ESE,4.6,-,0.00,Rain,Light Rain,120,2013-10-03 09:53:00
5:53 AM,72.0,70.0,93,29.91,9.0,Calm,Calm,-,0.00,,Mostly Cloudy,0,2013-10-03 10:53:00
6:25 AM,71.1,70.0,96,29.93,6.0,East,3.5,-,N/A,,Mostly Cloudy,80,2013-10-03 11:25:00
6:53 AM,70.0,69.1,97,29.93,3.0,ESE,3.5,-,N/A,,Mostly Cloudy,110,2013-10-03 11:53:00
7:39 AM,72.0,71.1,97,29.95,6.0,ENE,3.5,-,N/A,,Overcast,70,2013-10-03 12:39:00
7:53 AM,72.0,71.1,97,29.94,6.0,East,3.5,-,N/A,,Overcast,90,2013-10-03 12:53:00
8:25 AM,73.0,72.0,96,29.96,6.0,Calm,Calm,-,N/A,,Overcast,0,2013-10-03 13:25:00
8:53 AM,73.0,71.1,93,29.96,6.0,Calm,Calm,-,N/A,,Overcast,0,2013-10-03 13:53:00
9:07 AM,73.9,72.0,93,29.97,7.0,Calm,Calm,-,N/A,,Overcast,0,2013-10-03 14:07:00
9:53 AM,75.9,71.1,85,29.96,9.0,South,5.8,-,N/A,,Overcast,170,2013-10-03 14:53:00
10:06 AM,75.9,72.0,87,29.98,9.0,South,4.6,-,N/A,,Overcast,170,2013-10-03 15:06:00
10:23 AM,75.9,71.1,85,29.98,10.0,South,5.8,-,N/A,,Overcast,170,2013-10-03 15:23:00
10:53 AM,78.1,71.1,79,29.96,9.0,Variable,3.5,-,N/A,,Overcast,0,2013-10-03 15:53:00
11:53 AM,79.0,71.1,77,29.95,10.0,South,5.8,-,N/A,,Overcast,190,2013-10-03 16:53:00
12:53 PM,82.0,71.1,69,29.93,10.0,Calm,Calm,-,N/A,,Overcast,0,2013-10-03 17:53:00
1:53 PM,84.0,70.0,63,29.90,10.0,SSE,9.2,-,N/A,,Scattered Clouds,160,2013-10-03 18:53:00
2:53 PM,84.9,71.1,63,29.88,10.0,South,6.9,-,N/A,,Overcast,170,2013-10-03 19:53:00
3:53 PM,84.0,71.1,65,29.87,10.0,South,8.1,-,N/A,,Mostly Cloudy,170,2013-10-03 20:53:00
4:53 PM,84.0,71.1,65,29.86,10.0,SE,6.9,-,N/A,,Clear,140,2013-10-03 21:53:00
5:53 PM,84.0,70.0,63,29.85,9.0,SSE,5.8,-,N/A,,Clear,160,2013-10-03 22:53:00
6:53 PM,80.1,70.0,71,29.85,10.0,SE,4.6,-,N/A,,Clear,140,2013-10-03 23:53:00
7:53 PM,78.1,71.1,79,29.86,10.0,ESE,4.6,-,N/A,,Clear,120,2013-10-04 00:53:00
8:53 PM,75.9,71.1,85,29.88,10.0,ESE,4.6,-,N/A,,Clear,120,2013-10-04 01:53:00
9:53 PM,75.0,71.1,87,29.88,9.0,ESE,4.6,-,N/A,,Clear,110,2013-10-04 02:53:00
11:53 PM,73.9,71.1,91,29.89,9.0,East,5.8,-,N/A,,Clear,100,2013-10-04 04:53:00